COSMOS 1691 DEB, 16266

Orbit data source: Space-Track

COSMOS 1691 DEB, 16266 is space debris in LEO originally from a launch on Wed, 09 Oct 1985 UTC launched from the Plesetsk Missile And Space Complex (PKMTR). Debris objects in space refer to the collection of defunct objects orbiting the Earth. Examples of debris include non-operational satellites, rocket bodies, and fragments generated from explosions, collisions, or faulty payload assembly.

Loading next visibility...
Identifier
16266, 1985-094K
Orbit
LEO
Country
Flag of CISCIS
Related business
Manufacturer
Unknown
Mission
Spacecraft
Bus & Motor
Unknown
Mass
Unknown
Launch date (UTC)
1985-10-09 (40 years ago)
Launch vehicle
Unknown
Launch site
Plesetsk Missile And Space Complex (PKMTR)
Object type
Payload
Rocket body
Debris
Shape & HBR
Unknown shape, 0.2 m
Radar Cross Section
Small (<0.1 m²)

Expand to show TLE details & history
Last TLE update: 8 hours ago

TLE from 8 hours ago
0 COSMOS 1691 DEB
1 16266U 85094K   26037.23423711  .00000294  00000-0  14919-2 0  9999
2 16266  82.6054 330.3372 0008953 307.0243 208.2618 12.66683767860905
Epoch: 2026-02-06T05:37Z
TLE epoch observation values (Epoch: 2026-02-06T05:37:18.086Z)
Latitude
24.56712°
Longitude
-73.74764°
Altitude
1,404.442 km
Speed
7.157 km/s
True Right ascension
09h 47m 48s
True Declination
24° 26' 53"
Sunlit
Object was in full shadow at epoch
Visualization orbit readout
Latitude
Unknown
Longitude
Unknown
Altitude
Unknown
Speed
Unknown
Apparent Right ascension
Unknown
Apparent Declination
Unknown
Sunlit
N/A
Visualization observer readout
Local Sidereal Time
15:24:22
Azimuth
Unknown
Elevation
Unknown
Doppler factor
Unknown
Orbital elements
Apogee altitude
1,399.749 km
Perigee altitude
1,385.834 km
Semi-major axis
7,770.929 km
Eccentricity
0.0009
Inclination
82.6054°
RAAN
330.3372°
Arg. of periapsis
307.0243°
True anomaly
208.21327°
Mean anomaly
208.2618°
Eccentric anomaly
208.23753°
Mean motion
3.16835 °/min
Orbital period
113.62 mins
BSTAR
0.0014919
Loading maneuver chart data...
Computing Atmospheric mass density...
Loading historical data...
Loading historical data...
Loading historical data...
Loading historical data...
Loading historical data...
Loading historical data...
Loading historical data...

Documentation

Showing up to 5 results
|